Location: Roanoke
(37.2710°N, 79.9420°W)
Time: 16:14:17
(UTC-05:00)

S-56A Canister/Altair - Pass Details

Date: 23 November 2019
Orbit: 633 x 2500 km, 38.9° (Epoch: 08 December)

Event Time Altitude Azimuth Distance (km) Brightness Sun altitude
Rises 16:01:00 0° 245° (WSW) 5,896 14.0 10.1°
Reaches altitude 10° 16:05:11 10° 244° (WSW) 4,696 14.1 9.5°
Maximum altitude 16:17:42 78° 161° (SSE) 1,665 9.4 7.4°
Drops below altitude 10° 16:25:53 10° 76° (ENE) 3,183 10.1 6.0°
Sets 16:28:13 0° 75° (ENE) 3,943 10.5 5.6°
